Home > Weather > Salvador > Past weeks

Flag for Brazil Past Weather in Salvador, Bahia, Brazil — Yesterday and Last 2 Weeks

Now
77 °F

Passing clouds.


Feels Like: 79 °F
Forecast: N/A
Wind: 15 mph from South

Location: Salvador Aeroporto

Current Time: Aug 28, 2016 at 7:40:31 PM

Latest Report: Aug 28, 2016 at 7:00 PM


Visibility: N/A

Pressure: 30.07 "Hg

Humidity: 61%

Dew Point: 63 °F

Location of SalvadorLocation

Past Weather in Salvador — Graph

°F

Salvador Temperature Yesterday

Maximum temperature yesterday: 81 °F (at 11:00 AM)
Minimum temperature yesterday: 73 °F (at 12:00 AM)
Average temperature yesterday: 77 °F

High & Low Weather Summary for the Past Weeks

 TemperatureHumidityPressure
High84 °F (Aug 16, 11:00 AM)100% (Aug 26, 5:00 PM)30.15 "Hg (Aug 26, 5:00 PM)
Low37 °F (Aug 26, 8:00 PM)51% (Aug 28, 4:00 PM)29.92 "Hg (Aug 16, 3:00 PM)
Average77 °F73%30.04 "Hg
* Reported Aug 13 6:00 PM — Aug 28 6:00 PM, Salvador, Weather by CustomWeather, © 2016

Note: Actual official high and low records may vary slightly from our data, if they occured in-between our weather recording intervals... More about our weather records

Advertising

Salvador Weather History for the Previous 24 Hours

Scroll right to see more
 ConditionsComfort  
Time TempWeatherWind HumidityBarometerVisibility
6:00 PM
Sun, Aug 28
79 °FPassing clouds.7 mph61%30.07 "HgN/A
5:00 PM79 °FBroken clouds.9 mph54%30.07 "HgN/A
4:00 PM81 °FScattered clouds.12 mph51%30.07 "HgN/A
3:00 PM81 °FScattered clouds.10 mph54%30.04 "HgN/A
2:00 PM81 °FScattered clouds.12 mph54%30.07 "HgN/A
1:00 PM81 °FScattered clouds.9 mph58%30.09 "HgN/A
12:00 PM81 °FScattered clouds.9 mph58%30.09 "HgN/A
11:00 AM81 °FScattered clouds.12 mph62%30.12 "HgN/A
10:00 AM81 °FScattered clouds.12 mph58%30.12 "HgN/A
9:00 AM81 °FScattered clouds.13 mph58%30.12 "HgN/A
8:00 AM77 °FBroken clouds.14 mph65%30.09 "HgN/A
7:00 AM77 °FBroken clouds.10 mph65%30.07 "HgN/A
6:00 AM75 °FScattered clouds.9 mph65%30.07 "HgN/A
5:00 AM75 °FPassing clouds.13 mph57%30.04 "HgN/A
4:00 AM75 °FPassing clouds.12 mph61%30.04 "HgN/A
3:00 AM75 °FPassing clouds.13 mph65%30.04 "HgN/A
2:00 AM73 °FPassing clouds.5 mph78%30.04 "HgN/A
1:00 AM75 °FPassing clouds.10 mph69%30.07 "HgN/A
12:00 AM77 °FPartly cloudy.13 mph65%30.07 "HgN/A
11:00 PM
Sat, Aug 27
77 °FPartly cloudy.9 mph65%30.09 "HgN/A
10:00 PM77 °FPassing clouds.13 mph65%30.09 "HgN/A
9:00 PM77 °FPassing clouds.13 mph65%30.09 "HgN/A
8:00 PM77 °FPartly cloudy.6 mph65%30.09 "HgN/A
7:00 PM77 °FPartly cloudy.16 mph69%30.07 "HgN/A
Weather by CustomWeather, © 2016

See weather overviewHow to use our weather pages